Regional Weather Roundup
Issued by NWS Newport/Morehead, NC

Current Version | Previous Version | Graphics & Text | Print | Product List | Glossary On
Versions: 1 2 3 4 5 6 7 8 9 10 11 12 13 14 15 16 17 18 19 20 21 22 23 24 25 26 27 28 29 30 31 32 33 34 35 36 37 38 39 40 41 42 43 44 45 46 47 48 49 50
000 ASUS42 KMHX 261025 RWRMHX WEATHER ROUNDUP FOR EASTERN NORTH CAROLINA NATIONAL WEATHER SERVICE NEWPORT/MOREHEAD CITY NC 600 AM EDT THU MAY 26 2016 NOTE: "FAIR" INDICATES FEW OR NO CLOUDS BELOW 12,000 FEET WITH NO SIGNIFICANT WEATHER AND/OR OBSTRUCTIONS TO VISIBILITY NCZ015>017-031-032-045>047-102-103-261100- NORTH COAST CITY SKY/WX TMP DP RH WIND PRES REMARKS EDENTON CLOUDY 69 69 100 SW8 30.19S ELIZABETH CITY MOCLDY 67 63 87 SW8 30.18R KITTY HAWK CLOUDY 68 64 86 SW5 30.19R MANTEO NOT AVBL $$ NCZ045>047-081-094-103-104-261100- CENTRAL COAST CITY SKY/WX TMP DP RH WIND PRES REMARKS FRISCO CLEAR 69 66 90 SW5 30.21R $$ NCZ095-097-098-100-101-261100- SOUTHERN COAST CITY SKY/WX TMP DP RH WIND PRES REMARKS BEAUFORT MOCLDY 70 68 93 S5 30.21R CEDAR ISLAND NOT AVBL JACKSONVILLE CLOUDY 67 64 90 CALM 30.20R PINEY ISLAND PTSUNNY N/A N/A N/A S5 30.21 WILMINGTON PTCLDY 66 64 93 CALM 30.20R $$ NCZ011>013-027>030-043-044-078>080-089-090>093-098-261100- COASTAL PLAIN CITY SKY/WX TMP DP RH WIND PRES REMARKS AHOSKIE NOT AVBL CLINTON CLEAR 65 65 100 CALM 30.20R FOG ELIZABETHTOWN NOT AVBL GOLDSBORO MOCLDY 67 67 100 S5 30.18R GREENVILLE PTCLDY 66 64 94 SW5 30.20R FOG HAVELOCK MOCLDY 65 64 97 S5 30.21R KENANSVILLE MOCLDY 65 64 96 CALM 30.21R KINSTON CLEAR 68 65 88 S5 30.20R NEW BERN MOCLDY 68 65 90 CALM 30.21R RICHLANDS CLOUDY 66 65 96 CALM 30.21R ROCKY MOUNT PTCLDY 64 62 93 S5 30.18R WASHINGTON CLOUDY 67 64 89 SW3 30.20R WHITEVILLE PTCLDY 65 63 94 CALM 30.19S $$ AMZ130-135-150-152-154-156-158-170-250-252-270-ANZ085-086-088-633-658-670-261100- MARINE OBSERVATIONS STATION/POSITION TIME TEMP WIND PRES WAVE SWELL AIR SEA DIR/SP/G HT/PER HT/PER (UTC) (F) (DEG/KT/KT) (MB) (FT/S) (FT/S) CHESAPEAKE LIGHT 1000 68 220/ 15/ 16 1021.9 64 E VA BEACH 0950 63 58 220/ 10/ 12 1021.6 3/ 9 2/ 9 DUCK 1000 70 60 210/ 9/ 12 1021.6 2 E DUCK 0911 62 N/A 2/ 8 OREGON INLET 1000 71 72 190/ 10/ 12 1022.4 13E OREGON INLT 1000 64 N/A 2/ 8 2/ 8 HATTERAS CG 1000 70 71 220/ 5/ 6 1022.4 DIAMOND BUOY 0950 71 69 230/ 6/ 6 1023.0 2/ 9 2/ 9 CAPE LOOKOUT 1000 72 210/ 5/ 6 1022.7 BEAUFORT LAB 1000 71 71 210/ 4/ 5 1022.2 30 SE NEW RVR IN 0925 74 N/A 2/ 9 27 SE WRIGHTSVLE 1008 75 73 220/ 6/ 10 1022.3 5 SE WRIGHTSVLE 1008 73 72 220/ 6/ 10 1023.5 225 S CAPE HAT 0950 74 78 70/ 10/ 14 1022.6 2/ 7 2/ 7 41 SE CHARLESTON 0950 76 76 170/ 6/ 6 1022.2 2/ 9 2/ 9 $$

USA.gov is the U.S. government's official web portal to all federal, state and local government web resources and services.